Time,TemperatureF,DewpointF,PressureIn,WindDirection,WindDirectionDegrees,WindSpeedMPH,WindSpeedGustMPH,Humidity,HourlyPrecipIn,Conditions,Clouds,dailyrainin,SoftwareType,DateUTC
2013-06-04 00:00:00,67.8,59.6,29.97,NNE,17,0.0,-999.0,75,0.00,,,0.00,Haskell-WGSend-v0.01,2013-06-04 05:00:00,
2013-06-04 00:05:00,67.7,59.9,29.97,NNE,21,0.0,-999.0,76,0.00,,,0.00,Haskell-WGSend-v0.01,2013-06-04 05:05:00,
2013-06-04 00:10:00,67.7,59.9,29.97,NNE,19,3.0,-999.0,76,0.00,,,0.00,Haskell-WGSend-v0.01,2013-06-04 05:10:00,
2013-06-04 00:15:00,67.6,59.8,29.97,NNE,17,0.0,-999.0,76,0.00,,,0.00,Haskell-WGSend-v0.01,2013-06-04 05:15:00,
2013-06-04 00:20:00,67.5,59.7,29.97,NNE,15,0.0,-999.0,76,0.00,,,0.00,Haskell-WGSend-v0.01,2013-06-04 05:20:00,
2013-06-04 00:25:00,67.4,59.6,29.97,NNE,15,2.0,-999.0,76,0.00,,,0.00,Haskell-WGSend-v0.01,2013-06-04 05:25:00,
2013-06-04 00:30:00,67.3,59.5,29.97,NNE,14,0.0,-999.0,76,0.00,,,0.00,Haskell-WGSend-v0.01,2013-06-04 05:30:00,
2013-06-04 00:35:00,67.2,59.4,29.97,NNE,13,0.0,-999.0,76,0.00,,,0.00,Haskell-WGSend-v0.01,2013-06-04 05:35:00,
2013-06-04 00:40:00,67.0,59.6,29.96,NNE,16,0.0,-999.0,77,0.00,,,0.00,Haskell-WGSend-v0.01,2013-06-04 05:40:00,
2013-06-04 00:45:00,67.0,59.6,29.97,NNE,16,0.0,-999.0,77,0.00,,,0.00,Haskell-WGSend-v0.01,2013-06-04 05:45:00,
2013-06-04 00:50:00,66.9,59.5,29.97,NNE,17,2.0,-999.0,77,0.00,,,0.00,Haskell-WGSend-v0.01,2013-06-04 05:50:00,
2013-06-04 00:55:00,66.8,59.4,29.97,NNE,24,0.0,-999.0,77,0.00,,,0.00,Haskell-WGSend-v0.01,2013-06-04 05:55:00,
2013-06-04 01:00:00,66.8,59.4,29.96,NNE,21,2.0,-999.0,77,0.00,,,0.00,Haskell-WGSend-v0.01,2013-06-04 06:00:00,
2013-06-04 01:05:00,66.7,59.6,29.96,NNE,22,0.0,-999.0,78,0.00,,,0.00,Haskell-WGSend-v0.01,2013-06-04 06:05:00,
2013-06-04 01:10:00,66.6,59.5,29.96,NNE,21,0.0,-999.0,78,0.00,,,0.00,Haskell-WGSend-v0.01,2013-06-04 06:10:00,
2013-06-04 01:15:00,66.5,59.4,29.96,NNE,19,0.0,-999.0,78,0.00,,,0.00,Haskell-WGSend-v0.01,2013-06-04 06:15:00,
2013-06-04 01:20:00,66.4,59.3,29.96,NNE,19,0.0,-999.0,78,0.00,,,0.00,Haskell-WGSend-v0.01,2013-06-04 06:20:00,
2013-06-04 01:25:00,66.3,59.6,29.96,NNE,19,0.0,-999.0,79,0.00,,,0.00,Haskell-WGSend-v0.01,2013-06-04 06:25:00,
2013-06-04 01:30:00,66.1,59.4,29.96,NNE,19,0.0,-999.0,79,0.00,,,0.00,Haskell-WGSend-v0.01,2013-06-04 06:30:00,
2013-06-04 01:35:00,66.0,59.3,29.96,NNE,19,0.0,-999.0,79,0.00,,,0.00,Haskell-WGSend-v0.01,2013-06-04 06:35:00,
2013-06-04 01:40:00,65.8,59.1,29.96,NNE,19,0.0,-999.0,79,0.00,,,0.00,Haskell-WGSend-v0.01,2013-06-04 06:40:00,
2013-06-04 01:45:00,65.7,59.4,29.96,NNE,19,1.0,-999.0,80,0.00,,,0.00,Haskell-WGSend-v0.01,2013-06-04 06:45:00,
2013-06-04 01:55:00,65.3,59.3,29.96,NNE,19,0.0,-999.0,81,0.00,,,0.00,Haskell-WGSend-v0.01,2013-06-04 06:55:00,
2013-06-04 02:00:00,65.0,59.0,29.96,NNE,19,0.0,-999.0,81,0.00,,,0.00,Haskell-WGSend-v0.01,2013-06-04 07:00:00,
2013-06-04 02:10:00,64.6,59.0,29.96,NNE,19,0.0,-999.0,82,0.00,,,0.00,Haskell-WGSend-v0.01,2013-06-04 07:10:00,
2013-06-04 02:15:00,64.4,58.8,29.95,NNE,19,0.0,-999.0,82,0.00,,,0.00,Haskell-WGSend-v0.01,2013-06-04 07:15:00,
2013-06-04 02:25:00,64.2,58.9,29.95,NNE,18,1.0,-999.0,83,0.00,,,0.00,Haskell-WGSend-v0.01,2013-06-04 07:25:00,
2013-06-04 02:30:00,64.1,58.8,29.95,NNE,18,0.0,-999.0,83,0.00,,,0.00,Haskell-WGSend-v0.01,2013-06-04 07:30:00,
2013-06-04 02:35:00,64.0,58.7,29.95,NNE,18,0.0,-999.0,83,0.00,,,0.00,Haskell-WGSend-v0.01,2013-06-04 07:35:00,
2013-06-04 02:40:00,63.9,58.6,29.95,NNE,18,0.0,-999.0,83,0.00,,,0.00,Haskell-WGSend-v0.01,2013-06-04 07:40:00,
2013-06-04 02:50:00,63.6,58.3,29.95,NNE,18,0.0,-999.0,83,0.00,,,0.00,Haskell-WGSend-v0.01,2013-06-04 07:50:00,
2013-06-04 02:55:00,63.5,58.6,29.96,NNE,18,0.0,-999.0,84,0.00,,,0.00,Haskell-WGSend-v0.01,2013-06-04 07:55:00,
2013-06-04 03:00:00,63.3,58.4,29.96,NNE,18,0.0,-999.0,84,0.00,,,0.00,Haskell-WGSend-v0.01,2013-06-04 08:00:00,
2013-06-04 03:10:00,63.0,58.4,29.96,NNE,17,0.0,-999.0,85,0.00,,,0.00,Haskell-WGSend-v0.01,2013-06-04 08:10:00,
2013-06-04 03:15:00,62.9,58.3,29.95,NNE,17,0.0,-999.0,85,0.00,,,0.00,Haskell-WGSend-v0.01,2013-06-04 08:15:00,
2013-06-04 03:25:00,62.7,58.1,29.96,NNE,17,0.0,-999.0,85,0.00,,,0.00,Haskell-WGSend-v0.01,2013-06-04 08:25:00,
2013-06-04 03:30:00,62.6,58.0,29.96,NNE,17,0.0,-999.0,85,0.00,,,0.00,Haskell-WGSend-v0.01,2013-06-04 08:30:00,
2013-06-04 03:35:00,62.5,58.3,29.96,NNE,17,0.0,-999.0,86,0.00,,,0.00,Haskell-WGSend-v0.01,2013-06-04 08:35:00,
2013-06-04 03:40:00,62.4,58.2,29.96,NNE,17,0.0,-999.0,86,0.00,,,0.00,Haskell-WGSend-v0.01,2013-06-04 08:40:00,
2013-06-04 03:45:00,62.3,58.1,29.96,NNE,17,0.0,-999.0,86,0.00,,,0.00,Haskell-WGSend-v0.01,2013-06-04 08:45:00,
2013-06-04 03:55:00,62.3,58.1,29.96,NNE,16,0.0,-999.0,86,0.00,,,0.00,Haskell-WGSend-v0.01,2013-06-04 08:55:00,
2013-06-04 04:00:00,62.2,58.3,29.96,NNE,15,0.0,-999.0,87,0.00,,,0.00,Haskell-WGSend-v0.01,2013-06-04 09:00:00,
2013-06-04 04:05:00,62.2,58.3,29.96,NNE,15,0.0,-999.0,87,0.00,,,0.00,Haskell-WGSend-v0.01,2013-06-04 09:05:00,
2013-06-04 04:10:00,62.2,58.3,29.96,NNE,16,0.0,-999.0,87,0.00,,,0.00,Haskell-WGSend-v0.01,2013-06-04 09:10:00,
2013-06-04 04:15:00,62.2,58.3,29.97,NNE,16,0.0,-999.0,87,0.00,,,0.00,Haskell-WGSend-v0.01,2013-06-04 09:15:00,
2013-06-04 04:20:00,62.2,58.3,29.97,NNE,16,0.0,-999.0,87,0.00,,,0.00,Haskell-WGSend-v0.01,2013-06-04 09:20:00,
2013-06-04 04:30:00,62.1,58.2,29.97,NNE,15,0.0,-999.0,87,0.00,,,0.00,Haskell-WGSend-v0.01,2013-06-04 09:30:00,
2013-06-04 04:35:00,62.0,58.1,29.97,NNE,15,0.0,-999.0,87,0.00,,,0.00,Haskell-WGSend-v0.01,2013-06-04 09:35:00,
2013-06-04 04:40:00,62.0,58.1,29.97,NNE,15,0.0,-999.0,87,0.00,,,0.00,Haskell-WGSend-v0.01,2013-06-04 09:40:00,
2013-06-04 04:45:00,61.9,58.0,29.97,NNE,15,0.0,-999.0,87,0.00,,,0.00,Haskell-WGSend-v0.01,2013-06-04 09:45:00,
2013-06-04 04:55:00,61.7,58.1,29.97,NNE,15,0.0,-999.0,88,0.00,,,0.00,Haskell-WGSend-v0.01,2013-06-04 09:55:00,
2013-06-04 05:00:00,61.5,57.9,29.98,NNE,15,0.0,-999.0,88,0.00,,,0.00,Haskell-WGSend-v0.01,2013-06-04 10:00:00,
2013-06-04 05:10:00,61.3,57.7,29.98,NNE,15,0.0,-999.0,88,0.00,,,0.00,Haskell-WGSend-v0.01,2013-06-04 10:10:00,
2013-06-04 05:20:00,61.0,57.4,29.98,NNE,15,0.0,-999.0,88,0.00,,,0.00,Haskell-WGSend-v0.01,2013-06-04 10:20:00,
2013-06-04 05:25:00,60.9,57.6,29.98,NNE,15,0.0,-999.0,89,0.00,,,0.00,Haskell-WGSend-v0.01,2013-06-04 10:25:00,
2013-06-04 05:30:00,60.8,57.5,29.98,NNE,15,0.0,-999.0,89,0.00,,,0.00,Haskell-WGSend-v0.01,2013-06-04 10:30:00,
2013-06-04 05:35:00,60.8,57.5,29.98,NNE,15,0.0,-999.0,89,0.00,,,0.00,Haskell-WGSend-v0.01,2013-06-04 10:35:00,
2013-06-04 05:40:00,60.8,57.5,29.98,NNE,15,0.0,-999.0,89,0.00,,,0.00,Haskell-WGSend-v0.01,2013-06-04 10:40:00,
2013-06-04 05:45:00,60.8,57.5,29.98,NNE,15,0.0,-999.0,89,0.00,,,0.00,Haskell-WGSend-v0.01,2013-06-04 10:45:00,
2013-06-04 05:50:00,60.7,57.4,29.98,NNE,15,0.0,-999.0,89,0.00,,,0.00,Haskell-WGSend-v0.01,2013-06-04 10:50:00,
2013-06-04 05:55:00,60.7,57.8,29.98,NNE,15,0.0,-999.0,90,0.00,,,0.00,Haskell-WGSend-v0.01,2013-06-04 10:55:00,
2013-06-04 06:00:00,60.7,57.8,29.98,NNE,15,0.0,-999.0,90,0.00,,,0.00,Haskell-WGSend-v0.01,2013-06-04 11:00:00,
2013-06-04 06:05:00,60.7,57.8,29.98,NNE,15,0.0,-999.0,90,0.00,,,0.00,Haskell-WGSend-v0.01,2013-06-04 11:05:00,
2013-06-04 06:10:00,60.8,57.8,29.98,NNE,15,0.0,-999.0,90,0.00,,,0.00,Haskell-WGSend-v0.01,2013-06-04 11:10:00,
2013-06-04 06:15:00,60.9,57.9,29.98,NNE,14,0.0,-999.0,90,0.00,,,0.00,Haskell-WGSend-v0.01,2013-06-04 11:15:00,
2013-06-04 06:20:00,61.0,58.0,29.99,NNE,14,1.0,-999.0,90,0.00,,,0.00,Haskell-WGSend-v0.01,2013-06-04 11:20:00,
2013-06-04 06:30:00,61.3,58.3,29.99,NNE,14,0.0,-999.0,90,0.00,,,0.00,Haskell-WGSend-v0.01,2013-06-04 11:30:00,
2013-06-04 06:40:00,61.8,58.8,29.99,NNE,14,0.0,-999.0,90,0.00,,,0.00,Haskell-WGSend-v0.01,2013-06-04 11:40:00,
2013-06-04 06:45:00,62.3,59.0,29.99,NNE,13,0.0,-999.0,89,0.00,,,0.00,Haskell-WGSend-v0.01,2013-06-04 11:45:00,
2013-06-04 06:55:00,63.4,59.5,29.99,NNE,12,0.0,-999.0,87,0.00,,,0.00,Haskell-WGSend-v0.01,2013-06-04 11:55:00,
2013-06-04 07:00:00,64.1,60.2,29.99,North,11,0.0,-999.0,87,0.00,,,0.00,Haskell-WGSend-v0.01,2013-06-04 12:00:00,
2013-06-04 07:05:00,64.8,60.5,29.99,NNE,12,0.0,-999.0,86,0.00,,,0.00,Haskell-WGSend-v0.01,2013-06-04 12:05:00,
2013-06-04 07:10:00,65.7,60.7,29.99,NNE,13,0.0,-999.0,84,0.00,,,0.00,Haskell-WGSend-v0.01,2013-06-04 12:10:00,
2013-06-04 07:15:00,66.2,60.9,29.99,NNE,13,0.0,-999.0,83,0.00,,,0.00,Haskell-WGSend-v0.01,2013-06-04 12:15:00,
2013-06-04 07:25:00,67.6,61.9,29.99,NNE,13,0.0,-999.0,82,0.00,,,0.00,Haskell-WGSend-v0.01,2013-06-04 12:25:00,
2013-06-04 07:30:00,68.2,61.8,29.99,NNE,15,0.0,-999.0,80,0.00,,,0.00,Haskell-WGSend-v0.01,2013-06-04 12:30:00,
2013-06-04 07:40:00,69.5,62.3,29.99,NNE,15,0.0,-999.0,78,0.00,,,0.00,Haskell-WGSend-v0.01,2013-06-04 12:40:00,
2013-06-04 07:50:00,70.6,62.3,30.00,NNE,15,0.0,-999.0,75,0.00,,,0.00,Haskell-WGSend-v0.01,2013-06-04 12:50:00,
2013-06-04 07:55:00,71.2,62.5,30.00,NNE,15,0.0,-999.0,74,0.00,,,0.00,Haskell-WGSend-v0.01,2013-06-04 12:55:00,
2013-06-04 08:00:00,71.6,62.1,30.00,NNE,16,0.0,-999.0,72,0.00,,,0.00,Haskell-WGSend-v0.01,2013-06-04 13:00:00,
2013-06-04 08:10:00,72.1,62.6,30.01,NNE,16,1.0,-999.0,72,0.00,,,0.00,Haskell-WGSend-v0.01,2013-06-04 13:10:00,
2013-06-04 08:25:00,73.5,63.1,30.01,NNE,16,0.0,-999.0,70,0.00,,,0.00,Haskell-WGSend-v0.01,2013-06-04 13:25:00,
2013-06-04 08:30:00,74.1,63.3,30.01,NNE,16,0.0,-999.0,69,0.00,,,0.00,Haskell-WGSend-v0.01,2013-06-04 13:30:00,
2013-06-04 08:35:00,74.5,63.2,30.01,NNE,16,0.0,-999.0,68,0.00,,,0.00,Haskell-WGSend-v0.01,2013-06-04 13:35:00,
2013-06-04 08:40:00,74.6,63.8,30.01,NNE,16,0.0,-999.0,69,0.00,,,0.00,Haskell-WGSend-v0.01,2013-06-04 13:40:00,
2013-06-04 08:50:00,75.2,63.5,30.01,North,5,1.0,-999.0,67,0.00,,,0.00,Haskell-WGSend-v0.01,2013-06-04 13:50:00,
2013-06-04 08:55:00,75.0,63.7,30.02,North,5,0.0,-999.0,68,0.00,,,0.00,Haskell-WGSend-v0.01,2013-06-04 13:55:00,
2013-06-04 09:00:00,75.4,63.7,30.02,North,5,0.0,-999.0,67,0.00,,,0.00,Haskell-WGSend-v0.01,2013-06-04 14:00:00,
2013-06-04 09:10:00,76.5,63.9,30.02,North,10,0.0,-999.0,65,0.00,,,0.00,Haskell-WGSend-v0.01,2013-06-04 14:10:00,
2013-06-04 09:15:00,76.7,64.0,30.02,North,355,0.0,-999.0,65,0.00,,,0.00,Haskell-WGSend-v0.01,2013-06-04 14:15:00,
2013-06-04 09:20:00,76.8,63.7,30.02,North,355,0.0,-999.0,64,0.00,,,0.00,Haskell-WGSend-v0.01,2013-06-04 14:20:00,
2013-06-04 09:30:00,77.4,63.8,30.01,North,355,0.0,-999.0,63,0.00,,,0.00,Haskell-WGSend-v0.01,2013-06-04 14:30:00,
2013-06-04 09:35:00,77.7,65.0,30.01,North,355,1.0,-999.0,65,0.00,,,0.00,Haskell-WGSend-v0.01,2013-06-04 14:35:00,
2013-06-04 09:40:00,77.9,63.4,30.01,North,355,4.0,-999.0,61,0.00,,,0.00,Haskell-WGSend-v0.01,2013-06-04 14:40:00,
2013-06-04 09:50:00,77.9,62.9,30.01,North,11,1.0,-999.0,60,0.00,,,0.00,Haskell-WGSend-v0.01,2013-06-04 14:50:00,
2013-06-04 09:55:00,78.2,63.6,30.02,NNE,12,3.0,-999.0,61,0.00,,,0.00,Haskell-WGSend-v0.01,2013-06-04 14:55:00,
2013-06-04 10:00:00,78.6,63.6,30.02,North,5,0.0,-999.0,60,0.00,,,0.00,Haskell-WGSend-v0.01,2013-06-04 15:00:00,
2013-06-04 10:10:00,79.4,61.3,30.02,North,355,0.0,-999.0,54,0.00,,,0.00,Haskell-WGSend-v0.01,2013-06-04 15:10:00,
2013-06-04 10:15:00,79.4,61.8,30.01,NE,34,0.0,-999.0,55,0.00,,,0.00,Haskell-WGSend-v0.01,2013-06-04 15:15:00,
2013-06-04 10:25:00,79.5,60.9,30.01,NNE,22,0.0,-999.0,53,0.00,,,0.00,Haskell-WGSend-v0.01,2013-06-04 15:25:00,
2013-06-04 10:30:00,79.7,63.1,30.01,NNE,21,0.0,-999.0,57,0.00,,,0.00,Haskell-WGSend-v0.01,2013-06-04 15:30:00,
2013-06-04 10:40:00,79.9,61.2,30.02,NNE,24,0.0,-999.0,53,0.00,,,0.00,Haskell-WGSend-v0.01,2013-06-04 15:40:00,
2013-06-04 10:50:00,80.2,64.1,30.02,North,355,0.0,-999.0,58,0.00,,,0.00,Haskell-WGSend-v0.01,2013-06-04 15:50:00,
2013-06-04 10:55:00,80.2,62.0,30.01,North,360,0.0,-999.0,54,0.00,,,0.00,Haskell-WGSend-v0.01,2013-06-04 15:55:00,
2013-06-04 11:00:00,80.5,61.8,30.01,North,351,0.0,-999.0,53,0.00,,,0.00,Haskell-WGSend-v0.01,2013-06-04 16:00:00,
2013-06-04 11:10:00,80.5,61.3,30.01,ENE,65,0.0,-999.0,52,0.00,,,0.00,Haskell-WGSend-v0.01,2013-06-04 16:10:00,
2013-06-04 11:15:00,80.5,61.3,30.01,East,80,0.0,-999.0,52,0.00,,,0.00,Haskell-WGSend-v0.01,2013-06-04 16:15:00,
2013-06-04 11:25:00,80.9,62.2,30.01,SSE,158,1.0,-999.0,53,0.00,,,0.00,Haskell-WGSend-v0.01,2013-06-04 16:25:00,
2013-06-04 11:30:00,81.1,62.9,30.01,West,263,5.0,-999.0,54,0.00,,,0.00,Haskell-WGSend-v0.01,2013-06-04 16:30:00,
2013-06-04 11:35:00,81.3,63.1,30.01,West,273,5.0,-999.0,54,0.00,,,0.00,Haskell-WGSend-v0.01,2013-06-04 16:35:00,
2013-06-04 11:40:00,81.5,62.7,30.01,WNW,302,1.0,-999.0,53,0.00,,,0.00,Haskell-WGSend-v0.01,2013-06-04 16:40:00,
2013-06-04 11:45:00,81.5,62.2,30.01,NW,310,5.0,-999.0,52,0.00,,,0.00,Haskell-WGSend-v0.01,2013-06-04 16:45:00,
2013-06-04 11:55:00,81.9,63.1,30.01,NW,325,0.0,-999.0,53,0.00,,,0.00,Haskell-WGSend-v0.01,2013-06-04 16:55:00,
2013-06-04 12:00:00,81.8,61.9,30.01,NE,40,0.0,-999.0,51,0.00,,,0.00,Haskell-WGSend-v0.01,2013-06-04 17:00:00,
2013-06-04 12:10:00,81.0,62.8,30.01,NNE,24,1.0,-999.0,54,0.00,,,0.00,Haskell-WGSend-v0.01,2013-06-04 17:10:00,
2013-06-04 12:15:00,81.4,62.6,30.01,NNE,27,0.0,-999.0,53,0.00,,,0.00,Haskell-WGSend-v0.01,2013-06-04 17:15:00,
2013-06-04 12:25:00,82.0,62.6,30.00,NW,323,6.0,-999.0,52,0.00,,,0.00,Haskell-WGSend-v0.01,2013-06-04 17:25:00,
2013-06-04 12:30:00,82.1,62.7,30.00,NNW,336,0.0,-999.0,52,0.00,,,0.00,Haskell-WGSend-v0.01,2013-06-04 17:30:00,
2013-06-04 12:40:00,82.3,61.8,30.00,North,355,11.0,-999.0,50,0.00,,,0.00,Haskell-WGSend-v0.01,2013-06-04 17:40:00,
2013-06-04 12:50:00,82.3,61.8,30.00,NW,306,0.0,-999.0,50,0.00,,,0.00,Haskell-WGSend-v0.01,2013-06-04 17:50:00,
2013-06-04 12:55:00,82.6,62.6,30.00,West,277,0.0,-999.0,51,0.00,,,0.00,Haskell-WGSend-v0.01,2013-06-04 17:55:00,
2013-06-04 13:00:00,83.0,63.6,30.00,NNW,348,0.0,-999.0,52,0.00,,,0.00,Haskell-WGSend-v0.01,2013-06-04 18:00:00,
2013-06-04 13:10:00,83.0,61.9,29.99,ENE,68,0.0,-999.0,49,0.00,,,0.00,Haskell-WGSend-v0.01,2013-06-04 18:10:00,
2013-06-04 13:20:00,83.1,62.5,29.99,East,82,2.0,-999.0,50,0.00,,,0.00,Haskell-WGSend-v0.01,2013-06-04 18:20:00,
2013-06-04 13:25:00,83.6,61.8,29.99,NNE,26,2.0,-999.0,48,0.00,,,0.00,Haskell-WGSend-v0.01,2013-06-04 18:25:00,
2013-06-04 13:30:00,84.0,62.2,29.99,WNW,294,2.0,-999.0,48,0.00,,,0.00,Haskell-WGSend-v0.01,2013-06-04 18:30:00,
2013-06-04 13:35:00,84.1,62.3,29.99,NW,304,2.0,-999.0,48,0.00,,,0.00,Haskell-WGSend-v0.01,2013-06-04 18:35:00,
2013-06-04 13:40:00,84.4,62.0,29.98,NW,304,0.0,-999.0,47,0.00,,,0.00,Haskell-WGSend-v0.01,2013-06-04 18:40:00,
2013-06-04 13:45:00,84.8,61.7,29.99,WNW,286,6.0,-999.0,46,0.00,,,0.00,Haskell-WGSend-v0.01,2013-06-04 18:45:00,
2013-06-04 13:50:00,85.0,63.1,29.98,West,273,2.0,-999.0,48,0.00,,,0.00,Haskell-WGSend-v0.01,2013-06-04 18:50:00,
2013-06-04 13:55:00,85.2,62.7,29.98,West,277,4.0,-999.0,47,0.00,,,0.00,Haskell-WGSend-v0.01,2013-06-04 18:55:00,
2013-06-04 14:00:00,85.3,62.8,29.98,SSW,212,5.0,-999.0,47,0.00,,,0.00,Haskell-WGSend-v0.01,2013-06-04 19:00:00,
2013-06-04 14:10:00,85.0,62.5,29.98,NW,312,2.0,-999.0,47,0.00,,,0.00,Haskell-WGSend-v0.01,2013-06-04 19:10:00,
2013-06-04 14:15:00,84.9,61.8,29.98,NW,325,2.0,-999.0,46,0.00,,,0.00,Haskell-WGSend-v0.01,2013-06-04 19:15:00,
2013-06-04 14:25:00,84.5,61.4,29.97,WSW,257,0.0,-999.0,46,0.00,,,0.00,Haskell-WGSend-v0.01,2013-06-04 19:25:00,
2013-06-04 14:30:00,84.6,63.3,29.97,SW,215,0.0,-999.0,49,0.00,,,0.00,Haskell-WGSend-v0.01,2013-06-04 19:30:00,
2013-06-04 14:35:00,84.9,62.4,29.97,SSW,200,0.0,-999.0,47,0.00,,,0.00,Haskell-WGSend-v0.01,2013-06-04 19:35:00,
2013-06-04 14:40:00,85.2,63.3,29.97,NW,317,0.0,-999.0,48,0.00,,,0.00,Haskell-WGSend-v0.01,2013-06-04 19:40:00,
2013-06-04 14:45:00,85.7,62.5,29.97,WNW,290,4.0,-999.0,46,0.00,,,0.00,Haskell-WGSend-v0.01,2013-06-04 19:45:00,
2013-06-04 14:55:00,86.2,61.7,29.97,NW,324,7.0,-999.0,44,0.00,,,0.00,Haskell-WGSend-v0.01,2013-06-04 19:55:00,
2013-06-04 15:00:00,86.2,63.6,29.97,NW,309,0.0,-999.0,47,0.00,,,0.00,Haskell-WGSend-v0.01,2013-06-04 20:00:00,
2013-06-04 15:10:00,86.7,62.2,29.96,NNW,337,1.0,-999.0,44,0.00,,,0.00,Haskell-WGSend-v0.01,2013-06-04 20:10:00,
2013-06-04 15:15:00,86.6,62.1,29.96,NW,326,2.0,-999.0,44,0.00,,,0.00,Haskell-WGSend-v0.01,2013-06-04 20:15:00,
2013-06-04 15:20:00,87.0,63.1,29.96,West,271,0.0,-999.0,45,0.00,,,0.00,Haskell-WGSend-v0.01,2013-06-04 20:20:00,
2013-06-04 15:30:00,87.6,63.0,29.96,SW,218,2.0,-999.0,44,0.00,,,0.00,Haskell-WGSend-v0.01,2013-06-04 20:30:00,
2013-06-04 15:35:00,87.4,62.2,29.96,SW,236,1.0,-999.0,43,0.00,,,0.00,Haskell-WGSend-v0.01,2013-06-04 20:35:00,
2013-06-04 15:40:00,87.3,62.7,29.96,WNW,288,5.0,-999.0,44,0.00,,,0.00,Haskell-WGSend-v0.01,2013-06-04 20:40:00,
2013-06-04 15:45:00,87.4,62.8,29.96,South,188,5.0,-999.0,44,0.00,,,0.00,Haskell-WGSend-v0.01,2013-06-04 20:45:00,
2013-06-04 15:55:00,87.3,62.7,29.95,WSW,244,7.0,-999.0,44,0.00,,,0.00,Haskell-WGSend-v0.01,2013-06-04 20:55:00,
2013-06-04 16:00:00,87.3,62.1,29.95,WSW,248,0.0,-999.0,43,0.00,,,0.00,Haskell-WGSend-v0.01,2013-06-04 21:00:00,
2013-06-04 16:10:00,87.6,63.6,29.95,WSW,241,2.0,-999.0,45,0.00,,,0.00,Haskell-WGSend-v0.01,2013-06-04 21:10:00,
2013-06-04 16:15:00,87.7,61.8,29.95,SW,230,0.0,-999.0,42,0.00,,,0.00,Haskell-WGSend-v0.01,2013-06-04 21:15:00,
2013-06-04 16:25:00,87.5,62.2,29.94,South,184,0.0,-999.0,43,0.00,,,0.00,Haskell-WGSend-v0.01,2013-06-04 21:25:00,
2013-06-04 16:30:00,87.6,61.7,29.94,SSW,208,0.0,-999.0,42,0.00,,,0.00,Haskell-WGSend-v0.01,2013-06-04 21:30:00,
2013-06-04 16:40:00,88.1,62.1,29.94,West,267,0.0,-999.0,42,0.00,,,0.00,Haskell-WGSend-v0.01,2013-06-04 21:40:00,
2013-06-04 16:50:00,88.0,62.7,29.93,NNW,346,5.0,-999.0,43,0.00,,,0.00,Haskell-WGSend-v0.01,2013-06-04 21:50:00,
2013-06-04 16:55:00,87.8,60.5,29.94,NNW,343,0.0,-999.0,40,0.00,,,0.00,Haskell-WGSend-v0.01,2013-06-04 21:55:00,
2013-06-04 17:00:00,87.5,62.2,29.93,WNW,294,5.0,-999.0,43,0.00,,,0.00,Haskell-WGSend-v0.01,2013-06-04 22:00:00,
2013-06-04 17:10:00,87.2,62.0,29.93,West,274,2.0,-999.0,43,0.00,,,0.00,Haskell-WGSend-v0.01,2013-06-04 22:10:00,
2013-06-04 17:15:00,87.1,60.5,29.93,West,279,4.0,-999.0,41,0.00,,,0.00,Haskell-WGSend-v0.01,2013-06-04 22:15:00,
2013-06-04 17:25:00,86.7,60.9,29.93,WNW,294,2.0,-999.0,42,0.00,,,0.00,Haskell-WGSend-v0.01,2013-06-04 22:25:00,
2013-06-04 17:30:00,86.8,60.9,29.93,WNW,300,4.0,-999.0,42,0.00,,,0.00,Haskell-WGSend-v0.01,2013-06-04 22:30:00,
2013-06-04 17:35:00,87.1,61.9,29.93,WNW,296,2.0,-999.0,43,0.00,,,0.00,Haskell-WGSend-v0.01,2013-06-04 22:35:00,
2013-06-04 17:40:00,87.4,62.2,29.93,West,274,4.0,-999.0,43,0.00,,,0.00,Haskell-WGSend-v0.01,2013-06-04 22:40:00,
2013-06-04 17:50:00,87.4,60.8,29.93,West,278,0.0,-999.0,41,0.00,,,0.00,Haskell-WGSend-v0.01,2013-06-04 22:50:00,
2013-06-04 17:55:00,87.2,61.3,29.92,West,278,2.0,-999.0,42,0.00,,,0.00,Haskell-WGSend-v0.01,2013-06-04 22:55:00,
2013-06-04 18:00:00,87.1,61.9,29.93,WNW,296,0.0,-999.0,43,0.00,,,0.00,Haskell-WGSend-v0.01,2013-06-04 23:00:00,
2013-06-04 18:10:00,86.0,60.9,29.93,WNW,297,0.0,-999.0,43,0.00,,,0.00,Haskell-WGSend-v0.01,2013-06-04 23:10:00,
2013-06-04 18:15:00,85.9,61.5,29.93,WNW,297,1.0,-999.0,44,0.00,,,0.00,Haskell-WGSend-v0.01,2013-06-04 23:15:00,
2013-06-04 18:20:00,86.1,61.6,29.93,WNW,300,2.0,-999.0,44,0.00,,,0.00,Haskell-WGSend-v0.01,2013-06-04 23:20:00,
2013-06-04 18:30:00,85.9,62.1,29.93,WNW,296,1.0,-999.0,45,0.00,,,0.00,Haskell-WGSend-v0.01,2013-06-04 23:30:00,
2013-06-04 18:35:00,85.6,62.4,29.93,WNW,297,0.0,-999.0,46,0.00,,,0.00,Haskell-WGSend-v0.01,2013-06-04 23:35:00,
2013-06-04 18:40:00,85.4,62.9,29.93,WNW,292,0.0,-999.0,47,0.00,,,0.00,Haskell-WGSend-v0.01,2013-06-04 23:40:00,
2013-06-04 18:55:00,84.0,62.2,29.93,West,264,1.0,-999.0,48,0.00,,,0.00,Haskell-WGSend-v0.01,2013-06-04 23:55:00,
2013-06-04 19:00:00,83.7,62.5,29.93,West,265,1.0,-999.0,49,0.00,,,0.00,Haskell-WGSend-v0.01,2013-06-05 00:00:00,
2013-06-04 19:05:00,83.4,61.6,29.93,West,265,3.0,-999.0,48,0.00,,,0.00,Haskell-WGSend-v0.01,2013-06-05 00:05:00,
2013-06-04 19:10:00,83.1,62.0,29.93,West,265,0.0,-999.0,49,0.00,,,0.00,Haskell-WGSend-v0.01,2013-06-05 00:10:00,
2013-06-04 19:15:00,82.9,62.3,29.94,West,266,0.0,-999.0,50,0.00,,,0.00,Haskell-WGSend-v0.01,2013-06-05 00:15:00,
2013-06-04 19:25:00,82.2,63.4,29.94,West,266,0.0,-999.0,53,0.00,,,0.00,Haskell-WGSend-v0.01,2013-06-05 00:25:00,
2013-06-04 19:30:00,81.7,64.0,29.94,West,266,0.0,-999.0,55,0.00,,,0.00,Haskell-WGSend-v0.01,2013-06-05 00:30:00,
2013-06-04 19:35:00,80.9,63.7,29.94,West,266,0.0,-999.0,56,0.00,,,0.00,Haskell-WGSend-v0.01,2013-06-05 00:35:00,
2013-06-04 19:40:00,80.1,63.5,29.94,West,266,0.0,-999.0,57,0.00,,,0.00,Haskell-WGSend-v0.01,2013-06-05 00:40:00,
2013-06-04 19:50:00,78.8,63.3,29.94,West,266,0.0,-999.0,59,0.00,,,0.00,Haskell-WGSend-v0.01,2013-06-05 00:50:00,
2013-06-04 19:55:00,78.3,63.3,29.93,West,266,0.0,-999.0,60,0.00,,,0.00,Haskell-WGSend-v0.01,2013-06-05 00:55:00,
2013-06-04 20:00:00,77.7,63.2,29.94,West,266,0.0,-999.0,61,0.00,,,0.00,Haskell-WGSend-v0.01,2013-06-05 01:00:00,
2013-06-04 20:10:00,76.6,63.1,29.94,West,266,0.0,-999.0,63,0.00,,,0.00,Haskell-WGSend-v0.01,2013-06-05 01:10:00,
2013-06-04 20:15:00,76.1,63.0,29.93,West,266,0.0,-999.0,64,0.00,,,0.00,Haskell-WGSend-v0.01,2013-06-05 01:15:00,
2013-06-04 20:25:00,75.1,63.0,29.93,West,266,0.0,-999.0,66,0.00,,,0.00,Haskell-WGSend-v0.01,2013-06-05 01:25:00,
2013-06-04 20:30:00,74.8,62.7,29.94,West,266,0.0,-999.0,66,0.00,,,0.00,Haskell-WGSend-v0.01,2013-06-05 01:30:00,
2013-06-04 20:35:00,74.4,62.7,29.94,West,266,0.0,-999.0,67,0.00,,,0.00,Haskell-WGSend-v0.01,2013-06-05 01:35:00,
2013-06-04 20:40:00,74.0,62.3,29.93,West,266,0.0,-999.0,67,0.00,,,0.00,Haskell-WGSend-v0.01,2013-06-05 01:40:00,
2013-06-04 20:50:00,73.3,62.5,29.94,West,266,0.0,-999.0,69,0.00,,,0.00,Haskell-WGSend-v0.01,2013-06-05 01:50:00,
2013-06-04 20:55:00,73.0,62.6,29.94,West,266,0.0,-999.0,70,0.00,,,0.00,Haskell-WGSend-v0.01,2013-06-05 01:55:00,
2013-06-04 21:00:00,72.9,62.5,29.94,West,266,0.0,-999.0,70,0.00,,,0.00,Haskell-WGSend-v0.01,2013-06-05 02:00:00,
2013-06-04 21:05:00,72.9,62.9,29.95,West,266,0.0,-999.0,71,0.00,,,0.00,Haskell-WGSend-v0.01,2013-06-05 02:05:00,
2013-06-04 21:10:00,72.8,63.2,29.95,West,266,0.0,-999.0,72,0.00,,,0.00,Haskell-WGSend-v0.01,2013-06-05 02:10:00,
2013-06-04 21:15:00,72.6,62.7,29.95,West,266,0.0,-999.0,71,0.00,,,0.00,Haskell-WGSend-v0.01,2013-06-05 02:15:00,
2013-06-04 21:25:00,72.2,63.1,29.96,West,266,0.0,-999.0,73,0.00,,,0.00,Haskell-WGSend-v0.01,2013-06-05 02:25:00,
2013-06-04 21:30:00,72.0,62.9,29.96,West,266,0.0,-999.0,73,0.00,,,0.00,Haskell-WGSend-v0.01,2013-06-05 02:30:00,
2013-06-04 21:35:00,71.7,63.0,29.96,West,266,0.0,-999.0,74,0.00,,,0.00,Haskell-WGSend-v0.01,2013-06-05 02:35:00,
2013-06-04 21:40:00,71.5,63.2,29.96,West,266,0.0,-999.0,75,0.00,,,0.00,Haskell-WGSend-v0.01,2013-06-05 02:40:00,
2013-06-04 21:45:00,71.3,63.0,29.96,West,266,0.0,-999.0,75,0.00,,,0.00,Haskell-WGSend-v0.01,2013-06-05 02:45:00,
2013-06-04 21:55:00,70.9,63.3,29.96,West,266,0.0,-999.0,77,0.00,,,0.00,Haskell-WGSend-v0.01,2013-06-05 02:55:00,
2013-06-04 22:00:00,70.6,62.7,29.96,West,266,0.0,-999.0,76,0.00,,,0.00,Haskell-WGSend-v0.01,2013-06-05 03:00:00,
2013-06-04 22:05:00,70.4,62.5,29.96,West,266,0.0,-999.0,76,0.00,,,0.00,Haskell-WGSend-v0.01,2013-06-05 03:05:00,
2013-06-04 22:10:00,70.2,62.3,29.96,West,266,0.0,-999.0,76,0.00,,,0.00,Haskell-WGSend-v0.01,2013-06-05 03:10:00,
2013-06-04 22:15:00,69.9,62.4,29.96,West,266,0.0,-999.0,77,0.00,,,0.00,Haskell-WGSend-v0.01,2013-06-05 03:15:00,
2013-06-04 22:25:00,69.9,62.7,29.96,West,266,0.0,-999.0,78,0.00,,,0.00,Haskell-WGSend-v0.01,2013-06-05 03:25:00,
2013-06-04 22:30:00,69.8,62.6,29.96,West,266,0.0,-999.0,78,0.00,,,0.00,Haskell-WGSend-v0.01,2013-06-05 03:30:00,
2013-06-04 22:40:00,69.6,62.1,29.96,West,266,0.0,-999.0,77,0.00,,,0.00,Haskell-WGSend-v0.01,2013-06-05 03:40:00,
2013-06-04 22:45:00,69.5,62.0,29.96,West,266,0.0,-999.0,77,0.00,,,0.00,Haskell-WGSend-v0.01,2013-06-05 03:45:00,
2013-06-04 22:55:00,69.2,61.7,29.96,West,266,0.0,-999.0,77,0.00,,,0.00,Haskell-WGSend-v0.01,2013-06-05 03:55:00,
2013-06-04 23:00:00,69.0,61.5,29.97,West,266,0.0,-999.0,77,0.00,,,0.00,Haskell-WGSend-v0.01,2013-06-05 04:00:00,
2013-06-04 23:05:00,68.8,61.7,29.96,West,266,0.0,-999.0,78,0.00,,,0.00,Haskell-WGSend-v0.01,2013-06-05 04:05:00,
2013-06-04 23:10:00,68.8,61.7,29.96,West,266,0.0,-999.0,78,0.00,,,0.00,Haskell-WGSend-v0.01,2013-06-05 04:10:00,
2013-06-04 23:15:00,68.7,61.6,29.96,West,266,0.0,-999.0,78,0.00,,,0.00,Haskell-WGSend-v0.01,2013-06-05 04:15:00,
2013-06-04 23:20:00,68.6,61.5,29.96,West,266,0.0,-999.0,78,0.00,,,0.00,Haskell-WGSend-v0.01,2013-06-05 04:20:00,
2013-06-04 23:30:00,68.2,61.4,29.96,West,266,0.0,-999.0,79,0.00,,,0.00,Haskell-WGSend-v0.01,2013-06-05 04:30:00,
2013-06-04 23:35:00,68.0,61.2,29.96,West,266,0.0,-999.0,79,0.00,,,0.00,Haskell-WGSend-v0.01,2013-06-05 04:35:00,
2013-06-04 23:40:00,67.7,61.3,29.96,West,266,0.0,-999.0,80,0.00,,,0.00,Haskell-WGSend-v0.01,2013-06-05 04:40:00,
2013-06-04 23:45:00,67.6,61.6,29.96,West,266,0.0,-999.0,81,0.00,,,0.00,Haskell-WGSend-v0.01,2013-06-05 04:45:00,
2013-06-04 23:55:00,67.3,61.3,29.96,West,266,0.0,-999.0,81,0.00,,,0.00,Haskell-WGSend-v0.01,2013-06-05 04:55:00,